Location: Marcaria
(45.1167°N, 10.5333°E)
Time: 12:11:28
(UTC+00:00)

Daily predictions for brighter satellites

Satellite Brightness Start Highest point End
(mag) Time Altitude Azimuth Time Altitude Azimuth Time Altitude Azimuth
NOSS 2-1 (C) 4.2 19:36:05 10° NW 19:40:42 88° SW 19:47:17 10° SE
Meteor 1-24 Rocket 3.6 19:39:23 10° S 19:44:42 84° E 19:50:13 10° NNE
Cosmos 1271 Rocket 2.8 19:45:02 10° N 19:49:01 69° E 19:52:54 10° SSE
H-2A R/B 4.0 19:46:09 10° SSW 19:49:32 31° W 19:52:59 10° NW
Cosmos 2082 Rocket 3.9 19:46:45 10° SE 19:49:34 14° E 19:52:23 10° ENE
NOSS 2-1 (D) 4.3 19:46:30 10° NW 19:51:10 76° SW 19:57:50 10° SSE
USA 276 3.6 19:49:46 10° W 19:52:37 36° N 19:55:28 10° ENE
H-2A R/B 2.3 19:51:07 10° NNE 19:55:35 80° WNW 20:00:05 10° SSW
USA 245 3.9 19:53:05 10° SE 19:56:56 38° ENE 20:00:05 10° N
Cosmos 1536 Rocket 4.0 19:52:52 10° SSE 19:56:58 44° E 20:01:06 10° NNE
Cosmos 1455 2.2 19:54:33 10° N 19:58:23 82° E 20:02:12 10° S
Cosmos 1709 Rocket 4.5 19:54:32 10° NNW 20:00:41 64° W 20:06:53 10° S
CARTOSAT-1 3.7 19:57:09 10° SSE 20:01:22 60° ENE 20:05:38 10° N
ARIANE 5 R/B 4.5 19:58:51 10° ESE 20:01:48 18° ENE 20:04:45 10° NNE
Cosmos 1975 Rocket 4.3 19:58:51 10° SSW 20:03:06 44° WNW 20:07:20 10° N
SL-24 R/B 4.3 19:59:32 10° SSE 20:03:53 82° ENE 20:08:53 10° NNW
Cosmos 1741 Rocket 4.3 19:59:44 10° NNW 20:05:00 57° ENE 20:09:58 11° SE
ATLAS 5 CENTAUR R/B 3.7 19:54:06 10° NW 20:06:21 54° WSW 20:10:13 10° SSE
Cosmos 2315 Rocket 4.5 20:01:31 10° SSW 20:07:48 66° W 20:14:04 10° N
Tiangong 3.4 20:06:09 10° WSW 20:07:48 13° SSW 20:09:27 10° S
SPOT 3 Rocket 3.7 20:05:43 10° SSE 20:10:51 68° ENE 20:16:03 10° N
Ariane Rocket 3.2 20:07:20 10° S 20:12:26 78° WSW 20:17:34 10° NNW
Cosmos 2074 Rocket 4.1 20:07:21 10° N 20:13:36 63° E 20:19:38 11° SSE
Cosmos 1544 Rocket 4.2 20:16:02 10° NNW 20:20:16 55° W 20:24:31 10° S
Lacrosse 5 rocket 3.8 20:20:36 10° WSW 20:21:56 11° WSW 20:23:17 10° SW
GEOS 3 Rocket 4.3 20:17:23 10° SSE 20:22:16 46° WSW 20:27:11 10° NW
Cosmos 1656 3.8 20:17:38 10° NNW 20:23:06 71° WSW 20:28:14 12° SSE
Nadezhda 1 Rocket 4.3 20:18:46 10° SSE 20:24:33 47° E 20:30:20 10° NNE
ATLAS 2AS CENTAUR R/B 3.6 20:23:07 10° NW 20:29:36 41° WSW 20:35:41 10° S
MetOp-B 4.5 20:24:26 10° S 20:29:45 66° WSW 20:35:06 10° NNW
Cosmos 1850 Rocket 4.0 20:26:45 10° NNW 20:31:58 82° WSW 20:36:19 15° SSE
SL-16 R/B 4.4 20:30:49 10° N 20:33:49 14° NE 20:36:49 10° ENE
Cosmos 1980 Rocket 3.1 20:29:29 10° NNW 20:34:50 39° NE 20:39:07 15° ESE
Cosmos 1697 Rocket 2.8 20:29:36 10° NNW 20:35:15 72° ENE 20:39:32 18° SE
Cosmos 2344 4.5 20:28:43 10° NW 20:37:31 67° NE 20:48:13 14° SE
Cosmos 1331 Rocket 4.0 20:32:18 10° SSW 20:37:34 73° ESE 20:42:52 10° NNE
SL-8 R/B 3.7 20:32:59 10° WNW 20:37:47 73° SSW 20:41:22 18° SE
Cosmos 2369 4.3 20:32:49 10° NNW 20:38:21 46° ENE 20:42:35 17° SE
COSMOS 2406 3.4 20:37:19 10° S 20:42:54 53° ESE 20:48:29 10° NE
Spot 2 Rocket 3.5 20:38:46 16° SSE 20:42:56 85° ENE 20:48:04 10° NNW
Cosmos 2154 Rocket 4.0 20:38:58 10° N 20:45:12 77° E 20:50:11 17° SSE
X-37B 0.3 20:43:08 10° W 20:45:55 61° SSW 20:47:01 31° SE
ATLAS 5 CENTAUR R/B 3.0 20:48:00 15° E 20:48:00 15° E 20:49:40 10° ENE
CZ-2C R/B 3.7 20:44:03 10° NNE 20:48:34 60° E 20:51:58 17° S
SPOT 5 2.7 20:49:45 18° S 20:52:58 77° WSW 20:57:18 10° NNW
Cosmos 1703 4.0 20:51:53 10° SSW 20:55:38 50° WNW 20:59:24 10° N
Cosmos 2084 Rocket 3.3 20:53:57 10° NW 20:57:52 71° NE 21:00:03 26° SE
RESURS DK-1 3.3 20:54:49 10° NW 20:58:42 40° WSW 21:01:19 18° S
Cosmos 1833 Rocket 3.0 20:53:28 10° SSW 20:59:02 71° WNW 21:04:41 10° NNE
Terra 1.8 20:56:28 22° SSE 20:59:37 84° ENE 21:04:24 10° NNW
CZ-4B R/B 4.2 21:00:38 10° NW 21:02:06 13° WNW 21:03:33 10° W
Helios 1A Rocket 3.2 21:01:06 20° S 21:03:46 61° W 21:07:51 10° NNW
ASTEX 1 4.2 20:59:27 10° NNE 21:04:05 37° E 21:06:20 24° SE
ERS-1 Rocket 3.2 21:02:33 19° S 21:06:11 69° WSW 21:11:13 10° NNW
Cosmos 1892 Rocket 3.7 21:04:14 25° SSE 21:06:36 58° E 21:10:55 10° NNE
Resurs 01 Rocket 4.2 21:04:36 10° SW 21:07:07 15° W 21:09:38 10° NW
Cosmos 1302 Rocket 4.0 21:03:52 16° S 21:08:00 65° ESE 21:13:09 10° NNE
Cosmos 2322 Rocket 4.3 21:05:51 10° N 21:09:41 18° NE 21:13:31 10° E
Cosmos 2228 3.8 21:08:16 10° NNW 21:12:19 46° W 21:15:16 17° SSW
Cosmos 2058 Rocket 3.4 21:09:04 10° N 21:13:23 50° ENE 21:15:19 29° SE
Cosmos 1825 3.5 21:15:03 23° E 21:15:30 24° E 21:18:32 10° NE
Cosmos 1408 2.6 21:16:14 40° SE 21:17:06 53° E 21:20:29 10° NNE
Lacrosse 5 4.2 21:17:27 10° W 21:19:06 11° WSW 21:20:45 10° SW
Meteor 1-11 4.2 21:15:39 23° S 21:19:07 65° E 21:24:38 10° NNE
Cosmos 2278 4.2 21:15:32 10° NNW 21:21:08 52° ENE 21:24:23 24° SE
Cosmos 2366 rocket 4.4 21:17:45 10° N 21:23:55 51° ENE 21:27:19 26° SE
Cosmos 968 Rocket 3.4 21:18:42 10° NNW 21:23:56 87° ENE 21:26:36 30° SSE
Cosmos 1328 4.3 21:22:06 18° SSW 21:24:52 57° W 21:28:50 10° N
Cosmos 2218 Rocket 4.4 21:21:08 10° N 21:27:25 54° ENE 21:30:50 27° SE
USA 276 3.6 21:26:00 10° WNW 21:28:49 34° N 21:31:02 14° ENE
Cosmos 2082 Rocket 2.2 21:27:23 11° SSW 21:32:48 89° WNW 21:38:32 10° NNE
SJ 16-02 3.5 21:30:06 10° NNE 21:33:05 17° NE 21:35:23 12° E
BREEZE-M DEB (TANK) 4.5 21:15:25 10° SW 21:33:10 73° SSE 21:37:41 10° ENE
Cosmos 1867 3.5 21:28:21 10° NW 21:33:51 88° NE 21:36:30 32° SE
USA 267 3.3 21:30:33 10° ENE 21:36:57 54° SE 21:43:19 10° SSW
ARIANE 5 R/B 3.1 21:35:43 28° SSW 21:37:52 53° W 21:42:13 10° NNW
GP-B 3.0 21:37:29 10° N 21:41:57 81° E 21:43:35 39° S
Cosmos 2341 Rocket 4.0 21:37:12 10° N 21:43:33 84° W 21:47:01 29° S
Cosmos 2360 Rocket 4.1 21:41:31 10° N 21:45:48 21° NE 21:50:04 10° E
SAR-Lupe-4 3.4 21:42:24 10° NNE 21:45:59 84° ESE 21:46:46 53° S
Cosmos 864 Rocket 4.4 21:46:40 10° N 21:52:53 80° E 21:55:52 33° SSE
Okean 1-7 Rocket 3.5 21:58:40 44° S 22:00:03 84° E 22:04:35 10° N
Cosmos 1892 3.5 22:02:06 31° SW 22:03:26 46° WNW 22:07:05 10° N
Cosmos 1758 Rocket 4.0 22:08:36 41° ESE 22:09:12 44° E 22:13:23 10° NNE
Cosmos 2181 Rocket 4.0 22:07:21 28° SSW 22:10:47 75° W 22:17:04 10° N
USA 234 3.7 22:04:42 11° ESE 22:10:58 59° NNE 22:17:24 10° NW
Cosmos 1633 2.7 22:12:09 54° E 22:12:09 54° E 22:15:23 10° NNE
Cosmos 1992 Rocket 4.2 22:15:18 28° SW 22:18:06 70° WNW 22:23:22 10° NNE
Cosmos 1980 Rocket 3.2 22:13:38 10° NW 22:18:46 35° WSW 22:20:52 27° SW
Cosmos 1821 Rocket 4.1 22:12:42 10° N 22:18:55 64° E 22:21:23 37° SSE
SL-16 R/B 2.4 22:13:25 10° NNW 22:19:05 66° ENE 22:21:23 36° SE
Cosmos 1486 Rocket 4.0 22:14:15 10° NNW 22:19:28 70° WSW 22:21:05 44° S
SL-4 R/B 4.0 22:23:23 14° ENE 22:23:23 14° ENE 22:24:04 10° ENE
Cosmos 1812 Rocket 3.6 22:16:47 10° N 22:21:15 74° E 22:22:08 55° SE
Cosmos 2219 Rocket 4.4 22:18:51 10° N 22:22:51 19° NE 22:26:50 10° E
Cosmos-2242 2.9 22:26:20 10° N 22:30:35 73° E 22:31:12 61° SE
ATLAS 5 CENTAUR R/B 2.1 22:29:23 25° WSW 22:31:17 49° NW 22:35:22 10° NNE
Cosmos 1602 Rocket 3.5 22:32:11 55° SSW 22:33:04 76° W 22:37:24 10° N
Cosmos 1869 4.1 22:30:58 10° NNW 22:34:38 39° W 22:35:09 37° WSW
Terra 4.3 22:36:25 10° WSW 22:37:59 11° W 22:39:32 10° WNW
ERS-2 3.4 22:35:02 10° NE 22:37:40 28° E 22:37:40 28° E
Nadezhda 3 Rocket 3.9 22:36:22 41° SSE 22:38:37 73° E 22:44:45 10° NNE
ALOS 2 2.5 22:39:48 60° SSE 22:40:34 81° ENE 22:44:58 10° N
FALCON 9 DEB 4.2 22:40:13 10° WNW 22:42:17 34° WNW 22:42:17 34° WNW
Cosmos 1354 Rocket 3.9 22:42:24 10° NNW 22:47:44 82° WSW 22:49:06 51° S
ADEOS Rocket 3.5 22:45:43 36° SSE 22:49:08 90° NW 22:56:56 10° NNW
BREEZE-M DEB (TANK) 4.2 22:45:49 10° WNW 22:49:26 73° NNE 23:04:47 10° ESE
Cosmos 1825 4.0 22:49:40 21° W 22:50:46 24° WNW 22:53:51 10° NNW
Cosmos 2322 Rocket 2.1 22:48:51 10° NNW 22:54:34 88° ENE 22:56:24 46° SSE
Cosmos 1503 Rocket 4.3 22:52:17 10° NNW 22:57:27 55° WSW 22:58:35 45° SSW
Cosmos 1953 Rocket 3.8 22:58:43 52° ESE 22:59:10 55° E 23:03:29 10° NNE
PSLV R/B 4.2 22:57:51 10° NNE 23:02:26 45° E 23:03:01 43° ESE
USA 276 4.2 23:01:44 10° WNW 23:02:50 20° WNW 23:02:50 20° WNW
Cosmos 1777 Rocket 3.9 23:00:14 10° NNW 23:05:34 87° WSW 23:06:53 52° SSE
Cosmos 1825 Rocket 3.5 23:08:17 63° SW 23:08:51 74° W 23:13:12 10° N
Cosmos 2333 Rocket 2.9 23:04:13 10° NNW 23:09:49 49° ENE 23:12:51 26° ESE
CENTAUR R/B 3.9 23:09:34 19° ESE 23:10:20 20° ESE 23:14:50 10° ENE
Gbstr 26 Del rocket 2.9 23:11:09 67° SSW 23:11:35 75° SSE 23:16:43 10° ENE
SJ 16-02 1.5 23:07:39 10° NNW 23:12:00 56° WSW 23:12:19 54° WSW
COSMOS 2487 4.5 23:13:59 17° ENE 23:13:59 17° ENE 23:15:12 10° NE
Cosmos 1340 Rocket 2.6 23:13:03 81° ESE 23:13:06 82° E 23:17:05 10° NNE
H-2A R/B 4.4 23:15:59 10° N 23:19:56 40° WNW 23:20:55 34° WSW
USA 267 3.9 23:13:37 10° NE 23:19:59 56° NNW 23:26:20 10° WSW
Celestis-02/Orion 38 4.5 23:19:53 48° SSE 23:21:22 88° NE 23:26:29 10° NNW
Meteor 2-3 Rocket 4.4 23:20:57 34° SE 23:22:30 41° E 23:27:42 10° NNE
Cosmos 2058 3.4 23:26:08 46° WSW 23:26:41 49° WNW 23:30:47 10° N
Cosmos 2221 2.5 23:23:21 10° N 23:27:43 73° E 23:28:17 63° SE
Cosmos 1606 3.9 23:24:51 10° NNW 23:28:16 32° W 23:28:16 32° W
Cosmos 1842 Rocket 3.9 23:25:59 10° N 23:30:26 58° ENE 23:31:14 49° ESE
Cosmos 2360 Rocket 2.1 23:24:45 10° NNW 23:30:27 75° WSW 23:32:00 49° S
Cosmos 1934 Rocket 3.9 23:24:58 10° NNW 23:31:04 73° W 23:33:06 44° SSW
Nimbus 7 Rocket 4.3 23:28:33 10° NNE 23:34:32 88° ESE 23:36:36 44° SSW
Cosmos 2333 4.3 23:29:12 10° NNW 23:35:00 76° ENE 23:37:21 37° SE
Resurs 1-4 Rocket 4.2 23:32:57 10° NE 23:35:52 15° E 23:38:01 12° ESE
Cosmos 1782 3.8 23:32:52 10° N 23:36:33 36° ENE 23:37:13 33° E
Cosmos 1833 4.1 23:39:57 44° SW 23:41:48 81° WNW 23:47:26 10° NNE
Cosmos 44 3.1 23:41:21 57° SW 23:42:15 81° NW 23:46:45 10° NNE
CZ-2D R/B 4.1 23:41:19 10° NE 23:44:34 16° E 23:46:39 13° ESE
Cosmos 1727 Rocket 4.2 23:51:12 37° SSE 23:53:40 61° E 23:59:52 10° NNE
Cosmos 2237 Rocket 4.2 23:50:16 10° N 23:54:51 24° NE 23:59:23 10° ESE
